Weather History for Fairbanks Ft. Wainwright, AK

Change the Weather History Date:

Saturday, January 5, 2013

  Actual Average Record
Temperature  
Mean Temperature -4 °F -  
Max Temperature 1 °F 0 °F 30 °F (2005)
Min Temperature -9 °F -8 °F -47 °F (1998)
Degree Days  
Heating Degree Days 69    
Moisture  
Dew Point -10 °F    
Average Humidity 79    
Maximum Humidity 83    
Minimum Humidity 75    
Precipitation  
Precipitation 0.00 in - - ()
Sea Level Pressure  
Sea Level Pressure 29.63 in    
Wind  
Wind Speed 0 mph (NE)    
Max Wind Speed 4 mph    
Max Gust Speed -    
Visibility 10 miles    
Events      
Averages and records for this station are not official NWS values.
T = Trace of Precipitation, MM = Missing Value Source: NWS Daily Summary

Daily Weather History Graph

Daily Weather History Graph

Search for Another Location

Airport:

Trip Planner

Search our weather history database for the weather conditions in past years. The results will help you decide how hot, cold, wet, or windy it might be!

Date:

Astronomy

Jan. 05, 2013 Rise Set
Actual Time 10:47 AM AKST 3:05 PM AKST
Civil Twilight 9:28 AM AKST 4:24 PM AKST
Nautical Twilight 8:18 AM AKST 5:33 PM AKST
Astronomical Twilight 7:18 AM AKST 6:34 PM AKST
Moon 2:29 AM AKST (1/5) 11:27 AM AKST (1/5)
Length of Visible Light 6h 55m
Length of Day
4h 18m
Last Quarter, 42% of the Moon is Illuminated
Jan 5
Last Quarter
Jan 11
New
Jan 18
First Quarter
Jan 26
Full
Feb 3
Last Quarter

Hourly Weather History & Observations

Time (AKST) Temp. Windchill Dew Point Humidity Pressure Visibility Wind Dir Wind Speed Gust Speed Precip Events Conditions
12:56 AM -0.9 °F - -6.0 °F 79% 29.87 in 10.0 mi Calm Calm - N/A   Mostly Cloudy
1:56 AM 1.9 °F - -2.9 °F 80% 29.86 in 10.0 mi Calm Calm - N/A   Clear
2:56 AM -2.0 °F - -6.0 °F 83% 29.83 in 10.0 mi Calm Calm - N/A   Mostly Cloudy
3:56 AM -2.9 °F - -7.1 °F 82% 29.82 in 10.0 mi Calm Calm - N/A   Partly Cloudy
4:56 AM -2.9 °F - -9.0 °F 75% 29.79 in 10.0 mi Calm Calm - N/A   Clear
5:56 AM -6.0 °F - -11.0 °F 79% 29.77 in 10.0 mi Calm Calm - N/A   Clear
6:56 AM -8.0 °F - -13.0 °F 79% 29.75 in 10.0 mi Calm Calm - N/A   Clear
7:56 AM -9.0 °F - -14.1 °F 79% 29.72 in 10.0 mi Calm Calm - N/A   Clear
8:56 AM -8.0 °F - -14.1 °F 75% 29.70 in 10.0 mi Calm Calm - N/A   Clear
9:56 AM -8.0 °F - -13.0 °F 79% 29.68 in 10.0 mi Calm Calm - N/A   Clear
10:56 AM -9.0 °F - -15.0 °F 75% 29.66 in 10.0 mi Calm Calm - N/A   Clear
11:56 AM -7.1 °F - -11.9 °F 79% 29.63 in 10.0 mi Calm Calm - N/A   Clear
12:56 PM -6.0 °F - -11.0 °F 79% 29.61 in 10.0 mi Calm Calm - N/A   Clear
1:56 PM -6.0 °F - -9.9 °F 83% 29.58 in 10.0 mi Calm Calm - N/A   Clear
2:56 PM -2.9 °F - -8.0 °F 79% 29.55 in 10.0 mi Calm Calm - N/A   Clear
3:56 PM -2.0 °F - -7.1 °F 79% 29.55 in 10.0 mi Calm Calm - N/A   Clear
4:56 PM -4.0 °F - -9.0 °F 79% 29.51 in 10.0 mi Calm Calm - N/A   Clear
5:56 PM -4.0 °F -12.4 °F -9.0 °F 79% 29.50 in 10.0 mi NE 3.5 mph - N/A   Clear
6:56 PM -5.1 °F - -9.0 °F 83% 29.48 in 10.0 mi Calm Calm - N/A   Clear
7:56 PM -5.1 °F - -9.9 °F 80% 29.47 in 10.0 mi Calm Calm - N/A   Clear
8:56 PM -5.1 °F - -9.9 °F 80% 29.46 in 10.0 mi Calm Calm - N/A   Clear
9:56 PM -6.0 °F - -9.9 °F 83% 29.45 in 10.0 mi Calm Calm - N/A   Clear
10:56 PM -6.0 °F - -11.0 °F 79% 29.44 in 10.0 mi Calm Calm - N/A   Clear
11:56 PM -6.0 °F - -11.0 °F 79% 29.45 in 10.0 mi Calm Calm - N/A   Clear